Content
SEND FEEDBACK

Daily
Averages
Monthly
Summary
Canada

BEDFORD, QUEBEC


Home > North America > Canada > Quebec
Elevation: 174 feet     Latitude: 45 28N     Longitude: 073 45W

WEATHER
 
SELECT A DAY
Number of Records: 198,022;   Date Range: 1/1/95 - 7/20/14
 
SHARE

PRINT THIS DATA

[ ← Previous Day ]
WEATHER ALMANAC - APRIL 30, 2013
[ Next Day → ]
[ °C ]   °F
Weather ElementAverageHighLow
Temperature61.3 °F71.6 °F (5:00 pm)53.6 °F (4:00 am)
Dewpoint46.6 °F50 °F (1:00 pm)42.8 °F (1:00 am)
Humidity58.3 %77 % (4:00 am)34 % (8:00 pm)
Barometer30.22 in30.26 in (9:00 am)30.15 in (1:00 am)
Wind Speed5.6 mph10.4 mph (4:00 am)
Weather ElementAverage
Visibility22.6 mi
Wind DirectionESE (124.2 °)

Weather ElementTotal
Precipitation---
Heating Degree Days2.4 (Base 65)
Growing Degree Days12.6 (Base 50)
Averaged from 27 records on April 30, 2013
WEATHER CONDITIONS BREAKOUT
WIND DIRECTION BREAKOUT
WEATHER BY HOUR - APRIL 30, 2013
[ °C ]   °F
Local TimeTemperatureDewpointHumidityBarometerVisibilityWind DirectionWind SpeedGust SpeedPrecipitationEventsConditions
1:00 AM55.4 °F42.8 °F63 %30.15 in15.0 miSSE (150°)6.9 mphMostly Cloudy
2:00 AM55.0 °F44.0 °F55 %30.16 in15.0 miSSE (150°)5.8 mphMostly Cloudy
2:00 AM55.4 °F42.8 °F63 %30.16 in15.0 miSSE (150°)6.9 mphMostly Cloudy
3:00 AM55.4 °F44.6 °F67 %30.16 in15.0 miSSE (160°)5.8 mphOvercast
4:00 AM53.6 °F46.4 °F77 %30.17 in15.0 miSSE (150°)10.4 mphOvercast
5:00 AM53.6 °F44.6 °F72 %30.19 in15.0 miSSE (160°)9.2 mphOvercast
6:00 AM53.6 °F44.6 °F72 %30.22 in15.0 miSSE (160°)8.1 mphOvercast
7:00 AM53.6 °F46.4 °F77 %30.23 in15.0 miSouth (170°)3.5 mphOvercast
8:00 AM54.0 °F46.0 °F67 %30.25 in15.0 miSE (140°)5.8 mphOvercast
8:00 AM53.6 °F46.4 °F77 %30.25 in15.0 miSE (140°)6.9 mphOvercast
9:00 AM53.6 °F46.4 °F77 %30.26 in30.0 miSSE (160°)8.1 mphOvercast
10:00 AM55.4 °F46.4 °F72 %30.25 in30.0 miESE (110°)6.9 mphOvercast
11:00 AM59.0 °F48.2 °F67 %30.25 in30.0 miESE (120°)4.6 mphOvercast
12:00 PM60.8 °F46.4 °F59 %30.25 in30.0 miEast (80°)2.3 mphMostly Cloudy
1:00 PM64.4 °F50.0 °F59 %30.23 in30.0 miVariable2.3 mphMostly Cloudy
2:00 PM67.0 °F48.0 °F40 %30.23 in28.0 miCalmScattered Clouds
2:00 PM68.0 °F48.2 °F49 %30.22 in30.0 miCalmMostly Cloudy
3:00 PM69.8 °F48.2 °F46 %30.22 in30.0 miEast (100°)3.5 mphMostly Cloudy
4:00 PM69.8 °F48.2 °F46 %30.21 in30.0 miSSE (160°)5.8 mphMostly Cloudy
5:00 PM71.6 °F48.2 °F43 %30.21 in30.0 miESE (110°)5.8 mphMostly Cloudy
6:00 PM71.6 °F50.0 °F46 %30.21 in30.0 miEast (90°)4.6 mphMostly Cloudy
7:00 PM69.8 °F48.2 °F46 %30.21 in30.0 miESE (110°)6.9 mphMostly Cloudy
8:00 PM69.0 °F47.0 °F34 %30.22 in28.0 miSE (140°)9.2 mphMostly Cloudy
8:00 PM68.0 °F46.4 °F46 %30.22 in30.0 miSE (130°)8.1 mphMostly Cloudy
9:00 PM66.2 °F46.4 °F49 %30.23 in15.0 miSE (130°)3.5 mphScattered Clouds
10:00 PM66.2 °F46.4 °F49 %30.23 in15.0 miESE (120°)5.8 mphPartly Cloudy
11:00 PM62.6 °F46.4 °F55 %30.24 in15.0 miSE (140°)4.6 mphPartly Cloudy
Hourly data recorded from CYUL, located miles away from Bedford, Quebec







STORIES FROM OUR PARTNERS